McMinnville, OR

3:40 AM PDT on May 24, 2017 (GMT -0700)
McMinnville Municipal

Weather History for KMMV - May, 2014

Change the Weather History Date:

Thursday, May 1, 2014

  Actual Average Record
Temperature  
Mean Temperature 71 °F 53 °F  
Max Temperature 88 °F 65 °F 88 °F (2014)
Min Temperature 54 °F 41 °F 24 °F (1954)
Degree Days  
Heating Degree Days 0 12  
Month to date heating degree days 0 12  
Since 1 July heating degree days 4319 4410  
Cooling Degree Days 6 0  
Month to date cooling degree days 6 0  
Year to date cooling degree days 10 0  
Growing Degree Days 20 (Base 50)    
Moisture  
Dew Point 44 °F    
Average Humidity 39    
Maximum Humidity 51    
Minimum Humidity 26    
Precipitation  
Precipitation 0.00 in 0.06 in 1.24 in (1949)
Month to date precipitation 0.00 0.06  
Year to date precipitation 19.03 17.54  
Sea Level Pressure  
Sea Level Pressure 30.03 in    
Wind  
Wind Speed 6 mph (NW)    
Max Wind Speed 13 mph    
Max Gust Speed -    
Visibility 10 miles    
Events      
T = Trace of Precipitation, MM = Missing Value Source: NWS Daily Summary

Daily Weather History Graph

Daily Weather History Graph

Search for Another Location

Airport or City:

Trip Planner

Search our weather history database for the weather conditions in past years. The results will help you decide how hot, cold, wet, or windy it might be!

Date:

Astronomy

May. 01, 2014 Rise Set
Actual Time 6:01 AM PDT 8:18 PM PDT
Civil Twilight 5:28 AM PDT 8:51 PM PDT
Nautical Twilight 4:48 AM PDT 9:31 PM PDT
Astronomical Twilight 4:03 AM PDT 10:17 PM PDT
Moon 7:50 AM PDT (5/1) 10:59 PM PDT (5/1)
Length of Visible Light 15h 22m
Length of Day
14h 17m
Waxing Crescent, 7% of the Moon is Illuminated
May 1
Waxing Crescent
May 6
First Quarter
May 14
Full
May 21
Last Quarter
May 28
New

Hourly Weather History & Observations

Time (PDT) Temp. Heat Index Dew Point Humidity Pressure Visibility Wind Dir Wind Speed Gust Speed Precip Events Conditions
12:53 AM 63.0 °F - 37.9 °F 40% 30.06 in 10.0 mi North 8.1 mph - N/A   Clear
1:53 AM 61.0 °F - 37.9 °F 42% 30.06 in 10.0 mi North 8.1 mph - N/A   Clear
2:53 AM 62.1 °F - 36.0 °F 38% 30.05 in 10.0 mi North 9.2 mph - N/A   Clear
3:53 AM 59.0 °F - 36.0 °F 42% 30.04 in 10.0 mi North 9.2 mph - N/A   Clear
4:53 AM 57.0 °F - 37.0 °F 47% 30.04 in 10.0 mi North 8.1 mph - N/A   Clear
5:53 AM 55.0 °F - 37.9 °F 53% 30.04 in 10.0 mi North 8.1 mph - N/A   Clear
6:53 AM 57.0 °F - 39.0 °F 51% 30.04 in 10.0 mi North 8.1 mph - N/A   Clear
7:53 AM 61.0 °F - 43.0 °F 52% 30.04 in 10.0 mi NNW 3.5 mph - N/A   Clear
8:53 AM 66.9 °F - 44.1 °F 44% 30.04 in 10.0 mi NNE 3.5 mph - N/A   Clear
9:53 AM 73.9 °F - 44.1 °F 34% 30.04 in 10.0 mi NNE 4.6 mph - N/A   Clear
10:53 AM 75.0 °F - 45.0 °F 34% 30.04 in 10.0 mi ESE 4.6 mph - N/A   Clear
11:53 AM 75.9 °F - 48.0 °F 37% 30.04 in 10.0 mi SE 3.5 mph - N/A   Clear
12:53 PM 79.0 °F - 50.0 °F 36% 30.03 in 10.0 mi ESE 3.5 mph - N/A   Clear
1:53 PM 82.0 °F 81.3 °F 54.0 °F 38% 30.02 in 10.0 mi East 3.5 mph - N/A   Clear
2:53 PM 84.0 °F 82.6 °F 54.0 °F 35% 30.01 in 10.0 mi Calm Calm - N/A   Clear
3:53 PM 84.9 °F 83.7 °F 55.9 °F 37% 30.00 in 10.0 mi Calm Calm - N/A   Clear
4:53 PM 84.9 °F 83.2 °F 53.1 °F 33% 29.99 in 10.0 mi SW 6.9 mph - N/A   Clear
5:53 PM 82.9 °F - 48.0 °F 29% 29.99 in 10.0 mi WSW 12.7 mph - N/A   Clear
6:53 PM 81.0 °F - 42.1 °F 25% 30.00 in 10.0 mi West 10.4 mph - N/A   Clear
7:53 PM 75.0 °F - 44.1 °F 33% 30.01 in 10.0 mi SW 3.5 mph - N/A   Clear
8:53 PM 69.1 °F - 42.1 °F 38% 30.02 in 10.0 mi WSW 11.5 mph - N/A   Clear
9:53 PM 64.9 °F - 42.1 °F 43% 30.04 in 10.0 mi Calm Calm - N/A   Clear
10:53 PM 64.0 °F - 41.0 °F 43% 30.05 in 10.0 mi SSW 4.6 mph - N/A   Clear
11:53 PM 57.9 °F - 41.0 °F 53% 30.06 in 10.0 mi SW 8.1 mph - N/A   Clear